CW9533 Torre Faro Messina IT current weather conditions

sailwx.info

Wind from 277 at 10 knots gusting 19

Air temperature 21.7° C
Dewpoint 16.6° C

Last reported at 2014-Sep-02 03:47 UTC.
Time now 2014-Sep-02 04:17 UTC

Location: N 38°16' E 015°39'.
View on Google Maps.

See reports from other nearby stations

  
Tides and Currents Weather Stations Pressure Air Temp Water Temp Dewpoint Dewpoint Depression Visibility Wind Speed Wind Dir Waves Ship Positions
date/time (UTC)wind fromknots sea level pressurealtimeterstation pressurevisibilityair tempwater tempwave heightnotes
2014-Sep-02 03:47 277 10 gusting 19 21.7
2014-Sep-02 03:32 292 9 gusting 19 22.2
2014-Sep-02 03:17 282 10 gusting 23 21.7
2014-Sep-02 03:02 313 6 gusting 16 21.7
2014-Sep-02 02:47 331 10 gusting 16 21.1
2014-Sep-02 02:32 241 13 gusting 25 21.7
2014-Sep-02 02:17 264 5 gusting 10 21.7
2014-Sep-02 02:02 325 5 gusting 16 22.8
2014-Sep-02 01:47 273 7 gusting 18 22.2
2014-Sep-02 01:32 316 1 gusting 14 21.1
2014-Sep-02 01:17 275 9 gusting 18 21.1
2014-Sep-02 01:03 320 10 gusting 25 20.6
2014-Sep-02 00:47 281 12 gusting 27 20.6
2014-Sep-02 00:31 279 12 gusting 23 21.1
2014-Sep-02 00:16 324 7 gusting 19 23.9
2014-Sep-02 00:01 294 7 gusting 23 23.9
2014-Sep-01 23:46 260 9 gusting 18 23.9
2014-Sep-01 23:31 288 6 gusting 12 23.9
2014-Sep-01 23:16 289 1 gusting 8 23.9
2014-Sep-01 23:01 186 23.9
2014-Sep-01 22:46 299 0 gusting 6 23.9
2014-Sep-01 22:31 298 23.9
2014-Sep-01 22:16 296 5 gusting 13 23.9
2014-Sep-01 22:01 298 6 gusting 24 23.9
2014-Sep-01 21:46 321 13 gusting 26 23.9
2014-Sep-01 21:31 308 9 gusting 24 23.9
2014-Sep-01 21:16 306 8 gusting 19 23.9
2014-Sep-01 21:01 016 15 gusting 28 23.9
2014-Sep-01 20:46 315 10 gusting 25 23.9
2014-Sep-01 20:31 312 12 gusting 21 23.9
2014-Sep-01 20:16 019 6 gusting 26 23.9
2014-Sep-01 20:01 276 6 gusting 25 23.9
2014-Sep-01 19:46 302 11 gusting 21 24.4
2014-Sep-01 19:31 290 6 gusting 21 24.4
2014-Sep-01 19:16 327 5 gusting 19 24.4
2014-Sep-01 19:01 347 16 gusting 29 24.4
2014-Sep-01 18:46 306 9 gusting 29 24.4
2014-Sep-01 18:31 348 13 gusting 24 24.4
2014-Sep-01 18:16 011 8 gusting 20 24.4
2014-Sep-01 18:01 336 9 gusting 21 24.4
2014-Sep-01 17:46 334 7 gusting 22 24.4
2014-Sep-01 17:31 346 13 gusting 19 25.0
2014-Sep-01 17:16 306 9 gusting 19 25.6
2014-Sep-01 17:01 296 13 gusting 19 25.6
2014-Sep-01 16:46 336 15 gusting 28 25.6
2014-Sep-01 16:31 301 11 gusting 36 25.6
2014-Sep-01 16:16 313 13 gusting 31 26.1
2014-Sep-01 16:01 323 17 gusting 26 26.7
2014-Sep-01 15:46 333 9 gusting 23 26.7
2014-Sep-01 15:31 327 13 gusting 26 26.1
2014-Sep-01 15:16 327 10 gusting 21 26.1
2014-Sep-01 15:01 326 16 gusting 26 26.1
2014-Sep-01 14:46 344 8 gusting 20 26.1
2014-Sep-01 14:31 340 13 gusting 25 26.7
2014-Sep-01 14:16 302 12 gusting 22 26.7
2014-Sep-01 14:01 030 10 gusting 21 27.2
2014-Sep-01 13:46 324 13 gusting 21 27.2
2014-Sep-01 13:31 338 13 gusting 20 27.8
2014-Sep-01 13:16 355 12 gusting 19 28.3
2014-Sep-01 13:01 311 7 gusting 14 29.4
2014-Sep-01 12:46 293 8 gusting 14 29.4
2014-Sep-01 12:30 014 4 gusting 10 28.9
2014-Sep-01 12:15 217 1 gusting 5 28.3
2014-Sep-01 12:00 217 1 gusting 6 28.3
2014-Sep-01 11:45 217 5 gusting 9 27.8
2014-Sep-01 11:30 218 4 gusting 13 28.3
2014-Sep-01 11:15 218 5 gusting 12 27.8
2014-Sep-01 11:01 219 5 gusting 12 28.3
2014-Sep-01 10:47 202 4 gusting 8 28.3
2014-Sep-01 10:30 192 3 gusting 9 28.3
2014-Sep-01 10:15 090 2 gusting 10 29.4
2014-Sep-01 10:00 048 1 gusting 6 28.9
2014-Sep-01 09:45 049 4 gusting 7 28.3
2014-Sep-01 09:30 049 1 gusting 7 28.3
2014-Sep-01 09:15 050 4 gusting 7 28.3
2014-Sep-01 09:00 049 4 gusting 9 27.8
2014-Sep-01 08:45 045 4 gusting 6 27.8
2014-Sep-01 08:30 045 3 gusting 6 27.8
2014-Sep-01 08:15 045 4 gusting 8 27.8
2014-Sep-01 08:00 045 2 gusting 6 28.3
2014-Sep-01 07:45 045 1 gusting 4 28.3
2014-Sep-01 07:30 045 0 gusting 3 27.8
2014-Sep-01 07:15 045 0 gusting 4 27.8
2014-Sep-01 07:00 045 27.2
2014-Sep-01 06:45 045 0 gusting 4 26.7
2014-Sep-01 06:30 045 0 gusting 4 26.1
2014-Sep-01 06:15 045 1 gusting 4 26.7
2014-Sep-01 06:00 045 26.1
2014-Sep-01 05:45 045 0 gusting 4 25.6
2014-Sep-01 05:30 045 25.0
2014-Sep-01 05:15 045 2 gusting 5 24.4
2014-Sep-01 05:00 045 0 gusting 4 24.4
2014-Sep-01 04:45 045 23.3
2014-Sep-01 04:30 045 23.3
2014-Sep-01 04:14 045 23.9
2014-Sep-01 03:59 045 23.9
2014-Sep-01 03:44 045 23.9
2014-Sep-01 03:29 045 0 gusting 4 23.9
2014-Sep-01 03:14 045 1 gusting 3 23.9
2014-Sep-01 03:01 045 1 gusting 3 23.9
2014-Sep-01 02:44 045 0 gusting 3 23.3
2014-Sep-01 02:29 045 1 gusting 3 23.3
2014-Sep-01 02:14 045 0 gusting 2 23.9
2014-Sep-01 01:59 045 24.4
2014-Sep-01 01:44 045 23.9
2014-Sep-01 01:29 045 1 gusting 4 24.4
2014-Sep-01 01:14 045 1 gusting 4 24.4
2014-Sep-01 00:59 045 0 gusting 6 24.4
2014-Sep-01 00:44 047 5 gusting 9 24.4
2014-Sep-01 00:29 046 5 gusting 8 24.4
2014-Sep-01 00:14 047 6 gusting 10 24.4
2014-Aug-31 23:59 049 6 gusting 11 24.4
2014-Aug-31 23:44 049 6 gusting 11 25.0
2014-Aug-31 23:29 036 5 gusting 9 24.4
2014-Aug-31 23:14 055 6 gusting 8 25.0
2014-Aug-31 22:59 057 6 gusting 9 25.0
2014-Aug-31 22:44 057 5 gusting 8 25.0
2014-Aug-31 22:29 056 4 gusting 8 25.0
2014-Aug-31 22:14 056 3 gusting 6 25.0
2014-Aug-31 21:59 055 3 gusting 6 25.0
2014-Aug-31 21:44 055 2 gusting 7 25.0
2014-Aug-31 21:29 055 3 gusting 7 25.6
2014-Aug-31 21:14 053 3 gusting 7 25.6
2014-Aug-31 20:59 055 4 gusting 8 25.6
2014-Aug-31 20:44 053 4 gusting 9 25.6
2014-Aug-31 20:29 050 3 gusting 9 25.6
2014-Aug-31 20:14 042 5 gusting 9 25.6
2014-Aug-31 19:59 035 5 gusting 8 25.6
2014-Aug-31 19:44 036 3 gusting 7 25.6
2014-Aug-31 19:29 036 2 gusting 6 25.6
2014-Aug-31 19:14 034 5 gusting 8 25.6
2014-Aug-31 18:59 032 5 gusting 7 25.6
2014-Aug-31 18:44 032 4 gusting 7 25.6
2014-Aug-31 18:29 039 6 gusting 9 26.1
2014-Aug-31 18:14 049 3 gusting 6 26.1
2014-Aug-31 17:59 049 5 gusting 9 26.1
2014-Aug-31 17:44 046 6 gusting 9 26.1
2014-Aug-31 17:29 050 5 gusting 11 26.1
2014-Aug-31 17:14 065 5 gusting 10 26.7
2014-Aug-31 16:58 068 5 gusting 9 26.7
2014-Aug-31 16:43 065 2 gusting 10 26.7
2014-Aug-31 16:28 057 3 gusting 10 26.7
2014-Aug-31 16:13 062 5 gusting 13 27.2
2014-Aug-31 15:58 065 6 gusting 11 27.2
2014-Aug-31 15:43 080 5 gusting 10 27.8
2014-Aug-31 15:28 058 5 gusting 11 28.3
2014-Aug-31 15:13 046 0 gusting 11 28.3
2014-Aug-31 14:58 019 5 gusting 9 28.9
2014-Aug-31 14:43 021 4 gusting 11 28.9
2014-Aug-31 14:28 042 0 gusting 9 28.9
2014-Aug-31 14:13 019 6 gusting 13 28.3
2014-Aug-31 13:58 032 6 gusting 10 28.9
2014-Aug-31 13:43 021 6 gusting 11 28.3
2014-Aug-31 13:28 028 6 gusting 13 27.8
2014-Aug-31 13:13 062 7 gusting 12 27.8
2014-Aug-31 12:58 069 8 gusting 16 27.8
2014-Aug-31 12:43 069 7 gusting 15 27.8
2014-Aug-31 12:28 049 7 gusting 13 27.8
2014-Aug-31 12:13 057 9 gusting 18 28.3
2014-Aug-31 11:58 057 9 gusting 14 28.3
2014-Aug-31 11:43 080 9 gusting 16 28.3
2014-Aug-31 11:28 061 6 gusting 16 28.3
2014-Aug-31 11:13 065 7 gusting 12 28.9
2014-Aug-31 10:58 069 7 gusting 14 28.3
2014-Aug-31 10:43 046 6 gusting 14 28.3
2014-Aug-31 10:28 081 7 gusting 13 28.3
2014-Aug-31 10:13 053 6 gusting 13 28.3
2014-Aug-31 09:58 071 6 gusting 12 28.3
2014-Aug-31 09:43 078 8 gusting 13 28.3
2014-Aug-31 09:28 061 5 gusting 11 28.3
2014-Aug-31 09:13 032 4 gusting 8 28.3
2014-Aug-31 08:58 027 3 gusting 8 27.8
2014-Aug-31 08:43 027 5 gusting 9 27.8
2014-Aug-31 08:28 032 4 gusting 10 27.2
2014-Aug-31 08:13 030 2 gusting 8 27.2
2014-Aug-31 07:58 026 2 gusting 9 27.2
2014-Aug-31 07:43 026 5 gusting 9 26.7
2014-Aug-31 07:28 019 6 gusting 11 26.7
2014-Aug-31 07:13 014 2 gusting 8 26.7
2014-Aug-31 06:58 010 5 gusting 11 26.7
2014-Aug-31 06:43 360 5 gusting 8 26.1
2014-Aug-31 06:28 355 3 gusting 9 26.1
2014-Aug-31 06:14 337 5 gusting 8 26.1
2014-Aug-31 05:58 334 1 gusting 6 25.6
2014-Aug-31 05:43 334 2 gusting 6 25.6
2014-Aug-31 05:28 334 2 gusting 5 25.0
2014-Aug-31 05:13 333 1 gusting 7 25.0
2014-Aug-31 04:58 333 2 gusting 9 25.0
2014-Aug-31 04:43 335 4 gusting 9 25.0
2014-Aug-31 04:28 344 5 gusting 10 25.0
2014-Aug-31 04:12 360 4 gusting 9 25.0